SAS23F DTTA-LIEE

Flight info

Callsign SAS23F
Flight time 0h 36m
Altitude 20000
Route TOBIB3C TOBIB A725 OSMAR DCT PIRIX
Aircraft A320/M-SDE3FGHIRWY/LB1

Departure

Time 2026-04-28 18:36
Airport Tunis Carthage International Airport (DTTA)

Arrival

Time 2026-04-28 19:13
Airport Cagliari Elmas Airport (LIEE)
Time Latitude Longitude Altitude Speed Heading
2026-04-28 17:30 36.84531 10.21965 22 ft 0 kts 322°
2026-04-28 17:51 36.84531 10.21966 22 ft 0 kts 322°
2026-04-28 18:22 36.84512 10.21985 24 ft 4 kts 321°
2026-04-28 18:23 36.84494 10.22003 24 ft 4 kts 318°
2026-04-28 18:23 36.84479 10.22028 22 ft 4 kts 276°
2026-04-28 18:23 36.84483 10.22060 23 ft 4 kts 244°
2026-04-28 18:23 36.84497 10.22088 24 ft 4 kts 232°
2026-04-28 18:24 36.84507 10.22104 26 ft 0 kts 233°
2026-04-28 18:28 36.84506 10.22093 23 ft 2 kts 268°
2026-04-28 18:28 36.84513 10.22082 23 ft 0 kts 320°
2026-04-28 18:28 36.84514 10.22082 23 ft 0 kts 333°
2026-04-28 18:28 36.84520 10.22081 23 ft 1 kts 348°
2026-04-28 18:29 36.84531 10.22082 22 ft 2 kts
2026-04-28 18:29 36.84539 10.22083 22 ft 0 kts
2026-04-28 18:31 36.84540 10.22084 22 ft 0 kts 13°
2026-04-28 18:31 36.84540 10.22090 22 ft 1 kts 62°
2026-04-28 18:31 36.84534 10.22100 24 ft 4 kts 121°
2026-04-28 18:31 36.84503 10.22160 23 ft 11 kts 110°
2026-04-28 18:32 36.84515 10.22246 21 ft 12 kts 32°
2026-04-28 18:32 36.84597 10.22283 22 ft 13 kts
2026-04-28 18:32 36.84691 10.22308 22 ft 15 kts 14°
2026-04-28 18:32 36.84774 10.22330 23 ft 11 kts 11°
2026-04-28 18:33 36.84854 10.22351 25 ft 12 kts 13°
2026-04-28 18:33 36.84913 10.22368 24 ft 13 kts 13°
2026-04-28 18:33 36.85002 10.22358 29 ft 14 kts 310°
2026-04-28 18:33 36.85045 10.22245 31 ft 15 kts 292°
2026-04-28 18:34 36.85088 10.22119 26 ft 17 kts 293°
2026-04-28 18:34 36.85134 10.21980 27 ft 18 kts 293°
2026-04-28 18:34 36.85185 10.21832 28 ft 19 kts 293°
2026-04-28 18:34 36.85239 10.21717 28 ft 13 kts 329°
2026-04-28 18:35 36.85333 10.21733 29 ft 15 kts 19°
2026-04-28 18:35 36.85410 10.21780 29 ft 9 kts 49°
2026-04-28 18:35 36.85406 10.21836 29 ft 0 kts 111°
2026-04-28 18:35 36.85404 10.21842 29 ft 3 kts 111°
2026-04-28 18:36 36.85340 10.22045 27 ft 59 kts 112°
2026-04-28 18:36 36.85101 10.22755 27 ft 116 kts 112°
2026-04-28 18:36 36.84734 10.23856 127 ft 147 kts 112°
2026-04-28 18:36 36.84367 10.24960 743 ft 136 kts 113°
2026-04-28 18:37 36.84004 10.26055 1119 ft 138 kts 114°
2026-04-28 18:37 36.83616 10.27216 1309 ft 155 kts 115°
2026-04-28 18:37 36.83163 10.28572 1398 ft 184 kts 114°
2026-04-28 18:37 36.82383 10.29921 1681 ft 204 kts 149°
2026-04-28 18:38 36.80997 10.30245 2298 ft 212 kts 192°
2026-04-28 18:38 36.79758 10.29265 3003 ft 220 kts 233°
2026-04-28 18:38 36.79341 10.27431 3724 ft 229 kts 275°
2026-04-28 18:38 36.79995 10.25621 4436 ft 237 kts 314°
2026-04-28 18:39 36.81370 10.24471 5217 ft 240 kts 334°
2026-04-28 18:39 36.82921 10.23680 5998 ft 242 kts 339°
2026-04-28 18:39 36.84510 10.22969 6796 ft 243 kts 339°
2026-04-28 18:39 36.86191 10.22527 7375 ft 257 kts 350°
2026-04-28 18:40 36.88035 10.22133 7724 ft 280 kts 346°
2026-04-28 18:40 36.89974 10.21615 8358 ft 289 kts 345°
2026-04-28 18:40 36.91936 10.21034 9176 ft 291 kts 343°
2026-04-28 18:40 36.93918 10.20422 9766 ft 294 kts 343°
2026-04-28 18:41 36.95902 10.19800 9928 ft 293 kts 342°
2026-04-28 18:41 36.97910 10.19169 10170 ft 307 kts 342°
2026-04-28 18:41 37.00059 10.18488 10357 ft 330 kts 342°
2026-04-28 18:41 37.02329 10.17768 10611 ft 348 kts 342°
2026-04-28 18:42 37.04733 10.17014 11217 ft 355 kts 343°
2026-04-28 18:42 37.07111 10.16277 11881 ft 358 kts 343°
2026-04-28 18:42 37.09536 10.15527 12590 ft 360 kts 343°
2026-04-28 18:42 37.11978 10.14769 13294 ft 363 kts 343°
2026-04-28 18:43 37.14436 10.14004 13953 ft 365 kts 343°
2026-04-28 18:43 37.16912 10.13234 14536 ft 368 kts 343°
2026-04-28 18:43 37.19408 10.12454 15092 ft 371 kts 343°
2026-04-28 18:43 37.21930 10.11662 15637 ft 375 kts 343°
2026-04-28 18:44 37.24472 10.10859 16207 ft 378 kts 343°
2026-04-28 18:44 37.29624 10.09234 17371 ft 385 kts 343°
2026-04-28 18:44 37.32238 10.08408 17942 ft 389 kts 343°
2026-04-28 18:45 37.34878 10.07577 18487 ft 393 kts 343°
2026-04-28 18:45 37.37545 10.06739 19027 ft 396 kts 343°
2026-04-28 18:45 37.40233 10.05892 19575 ft 400 kts 343°
2026-04-28 18:45 37.42939 10.05042 19888 ft 402 kts 343°
2026-04-28 18:46 37.45667 10.04184 19972 ft 410 kts 343°
2026-04-28 18:46 37.48491 10.03289 19989 ft 426 kts 343°
2026-04-28 18:46 37.51396 10.02365 19987 ft 434 kts 343°
2026-04-28 18:46 37.54334 10.01436 19988 ft 436 kts 343°
2026-04-28 18:47 37.57280 10.00507 19985 ft 436 kts 343°
2026-04-28 18:47 37.60230 9.99578 19990 ft 437 kts 343°
2026-04-28 18:47 37.63176 9.98648 19992 ft 436 kts 343°
2026-04-28 18:47 37.66121 9.97716 19986 ft 436 kts 343°
2026-04-28 18:48 37.69030 9.96796 19989 ft 436 kts 343°
2026-04-28 18:48 37.71976 9.95863 19989 ft 436 kts 343°
2026-04-28 18:48 37.74922 9.94926 19988 ft 437 kts 343°
2026-04-28 18:48 37.77868 9.93985 20002 ft 437 kts 343°
2026-04-28 18:49 37.80810 9.93043 20003 ft 436 kts 343°
2026-04-28 18:49 37.82796 9.92407 20002 ft 436 kts 343°
2026-04-28 18:49 37.86694 9.91162 19997 ft 436 kts 343°
2026-04-28 18:49 37.89637 9.90226 19998 ft 436 kts 343°
2026-04-28 18:50 37.92572 9.89294 19995 ft 435 kts 343°
2026-04-28 18:50 37.95512 9.88359 19992 ft 435 kts 343°
2026-04-28 18:50 37.98457 9.87420 19995 ft 436 kts 343°
2026-04-28 18:50 38.01398 9.86476 19994 ft 436 kts 343°
2026-04-28 18:51 38.04330 9.85530 19994 ft 435 kts 343°
2026-04-28 18:51 38.07268 9.84581 19996 ft 435 kts 343°
2026-04-28 18:51 38.10203 9.83637 19998 ft 435 kts 343°
2026-04-28 18:51 38.13142 9.82695 19987 ft 436 kts 343°
2026-04-28 18:52 38.16083 9.81752 19982 ft 436 kts 343°
2026-04-28 18:52 38.19028 9.80806 19984 ft 436 kts 343°
2026-04-28 18:52 38.21970 9.79861 19982 ft 436 kts 343°
2026-04-28 18:52 38.24914 9.78912 19992 ft 436 kts 343°
2026-04-28 18:53 38.27861 9.77964 19994 ft 436 kts 343°
2026-04-28 18:53 38.30803 9.77015 19990 ft 436 kts 343°
2026-04-28 18:53 38.33744 9.76064 19993 ft 436 kts 343°
2026-04-28 18:53 38.36682 9.75113 19993 ft 436 kts 343°
2026-04-28 18:54 38.39579 9.74175 19992 ft 436 kts 343°
2026-04-28 18:54 38.42518 9.73223 19991 ft 436 kts 343°
2026-04-28 18:54 38.45497 9.72257 19996 ft 436 kts 343°
2026-04-28 18:54 38.48398 9.71319 19996 ft 436 kts 343°
2026-04-28 18:55 38.51335 9.70369 20008 ft 436 kts 343°
2026-04-28 18:55 38.53322 9.69725 20000 ft 436 kts 343°
2026-04-28 18:55 38.57213 9.68463 19999 ft 436 kts 343°
2026-04-28 18:55 38.60150 9.67510 20001 ft 435 kts 343°
2026-04-28 18:56 38.63085 9.66556 19999 ft 436 kts 343°
2026-04-28 18:56 38.66024 9.65596 20004 ft 436 kts 343°
2026-04-28 18:56 38.68961 9.64634 20000 ft 436 kts 343°
2026-04-28 18:56 38.71897 9.63674 20001 ft 436 kts 343°
2026-04-28 18:57 38.74834 9.62712 20011 ft 436 kts 343°
2026-04-28 18:57 38.77778 9.61749 20017 ft 436 kts 343°
2026-04-28 18:57 38.80714 9.60790 20014 ft 436 kts 343°
2026-04-28 18:57 38.83649 9.59833 20017 ft 436 kts 343°
2026-04-28 18:58 38.86591 9.58875 20019 ft 436 kts 343°
2026-04-28 18:58 38.89527 9.57919 20019 ft 436 kts 343°
2026-04-28 18:58 38.92469 9.56957 20026 ft 436 kts 343°
2026-04-28 18:58 38.95383 9.56002 19900 ft 426 kts 343°
2026-04-28 18:59 38.98208 9.55078 19672 ft 412 kts 344°
2026-04-28 18:59 39.00920 9.54189 19274 ft 405 kts 343°
2026-04-28 18:59 39.03645 9.53290 18665 ft 404 kts 343°
2026-04-28 18:59 39.06333 9.52400 17999 ft 396 kts 343°
2026-04-28 19:00 39.08992 9.51520 17289 ft 392 kts 344°
2026-04-28 19:00 39.11622 9.50651 16596 ft 388 kts 343°
2026-04-28 19:00 39.14230 9.49797 15917 ft 385 kts 343°
2026-04-28 19:00 39.16814 9.48961 15256 ft 381 kts 344°
2026-04-28 19:01 39.19378 9.48137 14622 ft 381 kts 344°
2026-04-28 19:01 39.21945 9.47312 13986 ft 380 kts 344°
2026-04-28 19:01 39.24507 9.46488 13296 ft 379 kts 344°
2026-04-28 19:01 39.27060 9.45665 12593 ft 377 kts 343°
2026-04-28 19:02 39.29601 9.44844 11910 ft 375 kts 344°
2026-04-28 19:02 39.32132 9.44023 11242 ft 374 kts 343°
2026-04-28 19:02 39.34645 9.43197 10588 ft 372 kts 342°
2026-04-28 19:02 39.36996 9.41961 9942 ft 357 kts 329°
2026-04-28 19:03 39.38954 9.40152 9490 ft 333 kts 315°
2026-04-28 19:03 39.40451 9.38045 9350 ft 305 kts 304°
2026-04-28 19:03 39.41536 9.35808 9216 ft 287 kts 295°
2026-04-28 19:03 39.42474 9.33540 9090 ft 286 kts 295°
2026-04-28 19:04 39.43411 9.31271 8957 ft 285 kts 295°
2026-04-28 19:04 39.44343 9.29009 8535 ft 283 kts 296°
2026-04-28 19:04 39.45268 9.26759 8128 ft 283 kts 296°
2026-04-28 19:04 39.46188 9.24513 7736 ft 282 kts 296°
2026-04-28 19:05 39.47105 9.22270 7263 ft 282 kts 296°
2026-04-28 19:05 39.48033 9.19998 6772 ft 289 kts 295°
2026-04-28 19:05 39.48977 9.17684 6313 ft 292 kts 295°
2026-04-28 19:05 39.49915 9.15383 5851 ft 295 kts 296°
2026-04-28 19:06 39.50877 9.13026 5362 ft 297 kts 296°
2026-04-28 19:06 39.51503 9.11409 5046 ft 297 kts 290°
2026-04-28 19:06 39.51614 9.07969 4419 ft 293 kts 248°
2026-04-28 19:06 39.50474 9.05858 3945 ft 287 kts 214°
2026-04-28 19:07 39.48757 9.04647 3471 ft 276 kts 200°
2026-04-28 19:07 39.47010 9.03792 3203 ft 261 kts 195°
2026-04-28 19:07 39.45296 9.03052 3089 ft 257 kts 196°
2026-04-28 19:07 39.43666 9.02346 2953 ft 237 kts 196°
2026-04-28 19:08 39.42170 9.01667 2831 ft 218 kts 197°
2026-04-28 19:08 39.40795 9.01017 2709 ft 204 kts 198°
2026-04-28 19:08 39.39506 9.00395 2618 ft 188 kts 197°
2026-04-28 19:08 39.38347 8.99829 2491 ft 165 kts 196°
2026-04-28 19:09 39.37321 8.99322 2323 ft 152 kts 196°
2026-04-28 19:09 39.36362 8.98851 2194 ft 145 kts 195°
2026-04-28 19:09 39.35426 8.98392 2068 ft 143 kts 196°
2026-04-28 19:09 39.34490 8.97934 1950 ft 144 kts 195°
2026-04-28 19:10 39.33557 8.97474 1826 ft 143 kts 197°
2026-04-28 19:10 39.32637 8.97016 1751 ft 141 kts 197°
2026-04-28 19:10 39.31703 8.96712 1709 ft 136 kts 168°
2026-04-28 19:10 39.30908 8.97261 1531 ft 132 kts 125°
2026-04-28 19:11 39.30518 8.98350 1147 ft 137 kts 109°
2026-04-28 19:11 39.30146 8.99466 878 ft 135 kts 122°
2026-04-28 19:11 39.29569 9.00404 654 ft 134 kts 141°
2026-04-28 19:11 39.28851 9.01175 472 ft 134 kts 142°
2026-04-28 19:12 39.28145 9.01988 374 ft 137 kts 142°
2026-04-28 19:12 39.27436 9.02804 358 ft 137 kts 140°
2026-04-28 19:12 39.26717 9.03622 198 ft 137 kts 140°
2026-04-28 19:12 39.26008 9.04447 42 ft 136 kts 142°
2026-04-28 19:13 39.25401 9.05129 19 ft 78 kts 138°
2026-04-28 19:13 39.25146 9.05428 18 ft 41 kts 137°
2026-04-28 19:13 39.25051 9.05567 20 ft 16 kts 100°
2026-04-28 19:13 39.25090 9.05692 19 ft 12 kts 60°
2026-04-28 19:14 39.25097 9.05708 19 ft 0 kts 60°
2026-04-28 19:15 39.25099 9.05712 19 ft 2 kts 60°
2026-04-28 19:15 39.25110 9.05737 19 ft 5 kts 60°
2026-04-28 19:15 39.25131 9.05784 20 ft 7 kts 60°
2026-04-28 19:15 39.25149 9.05826 18 ft 9 kts 62°
2026-04-28 19:16 39.25140 9.05938 18 ft 11 kts 79°
2026-04-28 19:16 39.25183 9.05992 18 ft 8 kts 33°
2026-04-28 19:16 39.25200 9.06052 18 ft 9 kts 118°
2026-04-28 19:16 39.25169 9.06076 18 ft 2 kts 151°
2026-04-28 19:17 39.25159 9.06086 18 ft 1 kts 143°
2026-04-28 19:17 39.25153 9.06092 18 ft 2 kts 143°
2026-04-28 19:17 39.25145 9.06099 18 ft 0 kts 142°